Flagstaff, AZ

9:06 AM MST on July 23, 2017 (GMT -0700)
Flagstaff Pulliam

Weather History for KFLG - May, 2013

Change the Weather History Date:

Sunday, May 19, 2013

  Actual Average Record
Temperature  
Mean Temperature 52 °F 52 °F  
Max Temperature 71 °F 69 °F 85 °F (2008)
Min Temperature 33 °F 36 °F 20 °F (1971)
Degree Days  
Heating Degree Days 13 13  
Month to date heating degree days 285 284  
Since 1 July heating degree days 6528 6640  
Cooling Degree Days 0 0  
Month to date cooling degree days 0 0  
Year to date cooling degree days 0 0  
Growing Degree Days 2 (Base 50)    
Moisture  
Dew Point 22 °F    
Average Humidity 41    
Maximum Humidity 70    
Minimum Humidity 11    
Precipitation  
Precipitation 0.00 in 0.02 in 0.50 in (1957)
Month to date precipitation 0.23 0.38  
Year to date precipitation 5.23 7.86  
Snow  
Snow 0.00 in 0.00 in 0.90 in (1917)
Month to date snowfall T 0.6  
Since 1 July snowfall 69.7 101.6  
Snow Depth 0.00 in    
Sea Level Pressure  
Sea Level Pressure 29.86 in    
Wind  
Wind Speed 9 mph (WSW)    
Max Wind Speed 28 mph    
Max Gust Speed 41 mph    
Visibility 10 miles    
Events      
T = Trace of Precipitation, MM = Missing Value Source: NWS Daily Summary

Daily Weather History Graph

Daily Weather History Graph

Search for Another Location

Airport or City:

Trip Planner

Search our weather history database for the weather conditions in past years. The results will help you decide how hot, cold, wet, or windy it might be!

Date:

Astronomy

May. 19, 2013 Rise Set
Actual Time 5:19 AM MST 7:27 PM MST
Civil Twilight 4:51 AM MST 7:55 PM MST
Nautical Twilight 4:16 AM MST 8:30 PM MST
Astronomical Twilight 3:39 AM MST 9:07 PM MST
Moon 1:47 PM MST (5/19) 1:31 AM MST (5/19)
Length of Visible Light 15h 04m
Length of Day
14h 07m
Waxing Gibbous, 66% of the Moon is Illuminated
May 19
Waxing Gibbous
May 24
Full
May 31
Last Quarter
Jun 8
New
Jun 16
First Quarter

Hourly Weather History & Observations

Time (MST) Temp. Windchill Dew Point Humidity Pressure Visibility Wind Dir Wind Speed Gust Speed Precip Events Conditions
12:57 AM 45.0 °F - 28.0 °F 52% 29.89 in 10.0 mi Calm Calm - N/A   Clear
1:57 AM 39.9 °F - 28.0 °F 63% 29.89 in 10.0 mi Calm Calm - N/A   Clear
2:57 AM 39.0 °F - 28.0 °F 65% 29.90 in 10.0 mi Calm Calm - N/A   Clear
3:57 AM 37.0 °F - 27.0 °F 67% 29.92 in 10.0 mi Calm Calm - N/A   Clear
4:57 AM 35.1 °F - 27.0 °F 72% 29.92 in 10.0 mi Calm Calm - N/A   Clear
5:57 AM 35.1 °F - 27.0 °F 72% 29.93 in 10.0 mi Calm Calm - N/A   Clear
6:57 AM 48.0 °F - 30.0 °F 50% 29.91 in 10.0 mi Calm Calm - N/A   Clear
7:57 AM 54.0 °F - 30.0 °F 40% 29.89 in 10.0 mi Calm Calm - N/A   Clear
8:57 AM 59.0 °F - 30.0 °F 33% 29.87 in 10.0 mi SSW 8.1 mph - N/A   Clear
9:57 AM 60.1 °F - 21.9 °F 23% 29.86 in 10.0 mi NW 6.9 mph 21.9 mph N/A   Mostly Cloudy
10:57 AM 64.9 °F - 18.0 °F 16% 29.83 in 10.0 mi WSW 17.3 mph 28.8 mph N/A   Partly Cloudy
11:57 AM 66.0 °F - 21.0 °F 18% 29.82 in 10.0 mi SW 18.4 mph 25.3 mph N/A   Mostly Cloudy
12:57 PM 66.9 °F - 19.0 °F 16% 29.82 in 10.0 mi SW 28.8 mph 36.8 mph N/A   Scattered Clouds
1:57 PM 69.1 °F - 16.0 °F 13% 29.81 in 10.0 mi SW 19.6 mph 29.9 mph N/A   Partly Cloudy
2:57 PM 70.0 °F - 14.0 °F 12% 29.80 in 10.0 mi WSW 24.2 mph 34.5 mph N/A   Clear
3:57 PM 69.1 °F - 14.0 °F 12% 29.79 in 10.0 mi WNW 16.1 mph 32.2 mph N/A   Clear
4:57 PM 68.0 °F - 17.1 °F 14% 29.80 in 10.0 mi WNW 20.7 mph 36.8 mph N/A   Clear
5:57 PM 64.9 °F - 17.1 °F 16% 29.83 in 10.0 mi West 17.3 mph 27.6 mph N/A   Clear
6:57 PM 62.1 °F - 18.0 °F 18% 29.81 in 10.0 mi West 10.4 mph 23.0 mph N/A   Clear
7:57 PM 59.0 °F - 17.1 °F 20% 29.83 in 10.0 mi WNW 9.2 mph - N/A   Clear
8:57 PM 55.0 °F - 17.1 °F 23% 29.87 in 10.0 mi WNW 3.5 mph - N/A   Clear
9:57 PM 51.1 °F - 16.0 °F 25% 29.89 in 10.0 mi Calm Calm - N/A   Clear
10:57 PM 48.9 °F - 21.0 °F 33% 29.89 in 10.0 mi Calm Calm - N/A   Clear
11:57 PM 42.1 °F 39.2 °F 21.0 °F 43% 29.92 in 10.0 mi South 4.6 mph - N/A   Clear